This is the latest recevied weather packets stored in our database for station/object SP3TOM-10. If no packets are shown the sender has not sent any weather packets the latest 10 day(s).
| Time | Temp. | Humidity | Pressure | Rain* | Wind** | Luminosity | Snow |
|---|---|---|---|---|---|---|---|
| 1778071660 | 20.56° C | 50% | 994 hPa | - | - | - | - |
| 1778070760 | 20° C | 51% | 994.1 hPa | - | - | - | - |
| 1778069860 | 20° C | 49% | 993.9 hPa | - | - | - | - |
| 1778068960 | 20° C | 49% | 993.8 hPa | - | - | - | - |
| 1778068059 | 20° C | 48% | 993.8 hPa | - | - | - | - |
| 1778067159 | 20° C | 48% | 993.8 hPa | - | - | - | - |
| 1778066259 | 20° C | 49% | 993.8 hPa | - | - | - | - |
| 1778065359 | 20° C | 48% | 993.9 hPa | - | - | - | - |
| 1778064459 | 20.56° C | 48% | 993.9 hPa | - | - | - | - |
| 1778063559 | 20° C | 48% | 993.9 hPa | - | - | - | - |
| 1778062659 | 20° C | 48% | 993.8 hPa | - | - | - | - |
| 1778061758 | 19.44° C | 48% | 993.9 hPa | - | - | - | - |
| 1778060858 | 19.44° C | 49% | 993.9 hPa | - | - | - | - |
| 1778059958 | 18.89° C | 48% | 993.9 hPa | - | - | - | - |
| 1778059058 | 18.89° C | 49% | 993.9 hPa | - | - | - | - |
| 1778058158 | 18.33° C | 49% | 993.8 hPa | - | - | - | - |
| 1778057257 | 18.33° C | 48% | 993.9 hPa | - | - | - | - |
| 1778056357 | 18.33° C | 50% | 993.8 hPa | - | - | - | - |
| 1778055457 | 17.78° C | 49% | 994 hPa | - | - | - | - |
| 1778054557 | 17.78° C | 48% | 993.7 hPa | - | - | - | - |
| 1778053657 | 17.78° C | 47% | 993.8 hPa | - | - | - | - |
| 1778052757 | 17.22° C | 50% | 993.8 hPa | - | - | - | - |
| 1778051857 | 17.22° C | 50% | 994 hPa | - | - | - | - |
| 1778050956 | 16.67° C | 51% | 993.8 hPa | - | - | - | - |
| 1778050056 | 16.67° C | 52% | 993.8 hPa | - | - | - | - |
* Rain since midnight (hover to see other rain measurements)
** Current wind speed in m/s (hover to see current wind gust speed)